This is the latest recevied weather packets stored in our database for station/object KD0RII. If no packets are shown the sender has not sent any weather packets the latest 10 day(s).
| Time | Temp. | Humidity | Pressure | Rain* | Wind** | Luminosity | Snow |
|---|---|---|---|---|---|---|---|
| 1778202618 | 16.67° C | 60% | 1011.7 hPa | 0 mm | - | 6 W/m² | - |
| 1778202314 | 16.67° C | 60% | 1011.6 hPa | 0 mm | - | 9 W/m² | - |
| 1778202012 | 17.22° C | 59% | 1011.4 hPa | 0 mm | - | 13 W/m² | - |
| 1778201708 | 17.22° C | 59% | 1011.5 hPa | 0 mm | - | 15 W/m² | - |
| 1778201405 | 17.22° C | 58% | 1011.5 hPa | 0 mm | - | 20 W/m² | - |
| 1778201100 | 17.78° C | 57% | 1011.3 hPa | 0 mm | - | 24 W/m² | - |
| 1778200798 | 17.78° C | 58% | 1011.4 hPa | 0 mm | - | 25 W/m² | - |
| 1778200489 | 18.33° C | 57% | 1011.6 hPa | 0 mm | - | 31 W/m² | - |
| 1778200186 | 18.33° C | 56% | 1011.6 hPa | 0 mm | - | 39 W/m² | - |
| 1778199882 | 18.89° C | 55% | 1011.4 hPa | 0 mm | - | 44 W/m² | - |
| 1778199578 | 18.89° C | 54% | 1011.4 hPa | 0 mm | - | 51 W/m² | - |
| 1778199275 | 19.44° C | 53% | 1011.7 hPa | 0 mm | - | 55 W/m² | - |
| 1778198971 | 19.44° C | 52% | 1011.6 hPa | 0 mm | - | 57 W/m² | - |
| 1778198667 | 20° C | 50% | 1011.4 hPa | 0 mm | - | 64 W/m² | - |
| 1778198364 | 20.56° C | 47% | 1011.4 hPa | 0 mm | - | 66 W/m² | - |
| 1778198061 | 20.56° C | 46% | 1011.7 hPa | 0 mm | - | 68 W/m² | - |
| 1778197758 | 21.11° C | 45% | 1011.6 hPa | 0 mm | - | 71 W/m² | - |
| 1778197455 | 21.67° C | 43% | 1011.8 hPa | 0 mm | - | 75 W/m² | - |
| 1778197152 | 21.67° C | 41% | 1011.7 hPa | 0 mm | - | 102 W/m² | - |
| 1778196849 | 21.67° C | 42% | 1011.6 hPa | 0 mm | - | 118 W/m² | - |
| 1778196547 | 21.67° C | 40% | 1011.9 hPa | 0 mm | - | 180 W/m² | - |
| 1778196237 | 21.67° C | 40% | 1011.9 hPa | 0 mm | - | 175 W/m² | - |
| 1778195935 | 21.67° C | 40% | 1011.9 hPa | 0 mm | - | 152 W/m² | - |
| 1778195631 | 21.67° C | 41% | 1012 hPa | 0 mm | - | 137 W/m² | - |
| 1778195327 | 22.22° C | 40% | 1011.9 hPa | 0 mm | - | 120 W/m² | - |
* Rain latest hour (hover to see other rain measurements)
** Current wind speed in m/s (hover to see current wind gust speed)